Regional Weather Roundup
Issued by NWS

Home | Current Version | Previous Version | Graphics & Text | Print | Product List | Glossary On
Versions: 1 2 3 4 5 6 7 8 9 10 11 12 13 14 15 16 17 18 19 20 21 22 23 24 25 26 27 28 29 30 31 32 33 34 35 36 37 38 39 40 41 42 43 44 45 46 47 48 49 50
000
ASUS43 KBIS 200610
RWRND

NORTH DAKOTA REGIONAL WEATHER ROUNDUP
NATIONAL WEATHER SERVICE BISMARCK ND
100 AM CDT MON OCT 20 2014

NOTE: "FAIR" INDICATES FEW OR NO CLOUDS BELOW 12,000 FEET WITH NO
SIGNIFICANT WEATHER AND/OR OBSTRUCTIONS TO VISIBILITY.


NDZ001>003-009>011-017-200700-
NORTHWEST NORTH DAKOTA

CITY           SKY/WX    TMP DP  RH WIND       PRES   REMARKS
WILLISTON      CLEAR     40  35  83 CALM      29.99S
6HR MIN TEMP:  36; 6HR MAX TEMP:  64;

MINOT          CLEAR     48  34  58 SW12      29.99R
MINOT AFB      CLEAR     40  35  80 W7        29.98R
$$

NDZ018>021-031>035-040>046-200700-
SOUTHWEST NORTH DAKOTA

CITY           SKY/WX    TMP DP  RH WIND       PRES   REMARKS
BISMARCK       PTCLDY    39  35  86 CALM      30.03S
6HR MIN TEMP:  39; 6HR MAX TEMP:  64;

DICKINSON      PTCLDY    41  34  76 S9        30.02S
GARRISON         N/A     39  31  72 CALM      30.01R
6HR MIN TEMP:  36; 6HR MAX TEMP:  56;

HETTINGER ARPT CLEAR     33  29  85 CALM      30.07R
$$

NDZ004>008-012>016-024-026-027-054-200700-
NORTHEAST NORTH DAKOTA

CITY           SKY/WX    TMP DP  RH WIND       PRES   REMARKS
GRAND FORKS    CLEAR     41  36  82 W6        29.93S
GRND FRKS AFB  CLEAR     43  38  83 NW8       29.94S
DEVILS LAKE    CLEAR     39  32  75 CALM      29.96R
$$

NDZ022-023-025-028>030-036>039-047>053-200700-
SOUTHEAST NORTH DAKOTA

CITY           SKY/WX    TMP DP  RH WIND       PRES   REMARKS
FARGO          CLEAR     44  37  76 NW6       29.93S
6HR MIN TEMP:  43; 6HR MAX TEMP:  58;

JAMESTOWN      CLEAR     44  37  76 W5        29.99R
$$



USA.gov is the U.S. government's official web portal to all federal, state and local government web resources and services.